Location: Climax
(33.2048°N, 96.4497°W)
Time: 15:45:10
(UTC+00:00)

SL-4 R/B - Visible Passes

Search period start: 03 July 2022 00:00
Search period end: 13 July 2022 00:00
Orbit: 426 x 654 km, 51.6° (Epoch: 02 July)

Date Brightness Start Highest point End Pass type
(mag) Time Alt. Az. Time Alt. Az. Time Alt. Az.
03 Jul 5.1 06:47:12 10° NNE 06:47:12 10° NNE 06:47:14 10° NNE visible
09 Jul 4.3 04:15:17 14° NNE 04:15:17 14° NNE 04:15:50 10° NNE visible
09 Jul 3.3 10:51:34 10° NW 10:55:27 47° NE 10:59:37 10° ESE visible
10 Jul 2.8 02:22:09 10° S 02:24:42 20° SE 02:27:15 10° E visible
10 Jul 3.5 04:00:55 10° W 04:03:56 29° NW 04:07:00 10° NNE visible
10 Jul 5.3 09:05:24 10° N 09:06:45 11° NNE 09:08:07 10° NE visible
10 Jul 2.6 10:42:49 10° NW 10:46:46 63° NE 10:51:01 10° SE visible
11 Jul 2.4 02:12:59 10° S 02:15:57 28° SE 02:18:53 10° ENE visible
11 Jul 4.1 03:52:35 10° W 03:55:19 22° NW 03:58:05 10° NNE visible
11 Jul 5.1 08:56:10 10° N 08:58:12 14° NNE 09:00:17 10° ENE visible
11 Jul 2.1 10:34:06 10° NW 10:38:03 84° NE 10:42:21 10° SE visible
12 Jul 1.9 02:03:59 10° SSW 02:07:11 40° SE 02:10:24 10° ENE visible
12 Jul 4.5 03:44:20 10° WNW 03:46:43 18° NNW 03:49:07 10° NNE visible
12 Jul 4.9 08:47:07 10° N 08:49:37 16° NNE 08:52:13 10° ENE visible
12 Jul 1.9 10:25:25 10° NW 10:29:21 72° SW 10:33:35 10° SE visible
